Time,TemperatureF,DewpointF,PressureIn,WindDirection,WindDirectionDegrees,WindSpeedMPH,WindSpeedGustMPH,Humidity,HourlyPrecipIn,Conditions,Clouds,dailyrainin,SoftwareType,DateUTC
2013-05-28 00:02:00,57.7,53.3,29.88,SSE,158,2.7,3.1,85,0.00,,,0.00,VWS V14.01,2013-05-28 07:02:00,
2013-05-28 00:07:00,57.7,53.3,29.88,NNE,22,0.0,0.0,85,0.00,,,0.00,VWS V14.01,2013-05-28 07:07:00,
2013-05-28 00:12:00,57.7,53.3,29.88,SSW,202,4.9,6.3,85,0.00,,,0.00,VWS V14.01,2013-05-28 07:12:00,
2013-05-28 00:17:00,57.6,53.1,29.88,SSW,202,2.7,7.6,85,0.00,,,0.00,VWS V14.01,2013-05-28 07:17:00,
2013-05-28 00:22:00,57.6,53.1,29.88,SSW,202,3.6,3.6,85,0.00,,,0.00,VWS V14.01,2013-05-28 07:22:00,
2013-05-28 00:28:00,57.7,53.3,29.88,SW,225,2.2,3.1,85,0.00,,,0.00,VWS V14.01,2013-05-28 07:28:00,
2013-05-28 00:33:00,57.7,53.3,29.88,ENE,68,0.0,0.0,85,0.00,,,0.00,VWS V14.01,2013-05-28 07:33:00,
2013-05-28 00:38:00,57.6,53.1,29.88,SE,135,3.6,5.4,85,0.00,,,0.00,VWS V14.01,2013-05-28 07:38:00,
2013-05-28 00:43:00,57.7,53.3,29.88,WNW,292,2.2,2.7,85,0.00,,,0.00,VWS V14.01,2013-05-28 07:43:00,
2013-05-28 00:48:00,57.6,53.1,29.88,SSE,158,6.3,8.1,85,0.00,,,0.00,VWS V14.01,2013-05-28 07:48:00,
2013-05-28 00:53:00,57.6,53.1,29.88,South,180,3.6,3.6,85,0.00,,,0.00,VWS V14.01,2013-05-28 07:53:00,
2013-05-28 00:59:00,57.6,53.1,29.88,SSE,158,6.3,6.3,85,0.00,,,0.00,VWS V14.01,2013-05-28 07:59:00,
2013-05-28 01:04:00,57.6,53.1,29.88,SSW,202,5.8,5.8,85,0.00,,,0.00,VWS V14.01,2013-05-28 08:04:00,
2013-05-28 01:09:00,57.4,52.9,29.88,West,270,0.0,4.9,85,0.00,,,0.00,VWS V14.01,2013-05-28 08:09:00,
2013-05-28 01:14:00,57.4,52.9,29.88,ENE,68,0.0,2.7,85,0.00,,,0.00,VWS V14.01,2013-05-28 08:14:00,
2013-05-28 01:19:00,57.4,52.9,29.88,WNW,292,3.6,8.1,85,0.00,,,0.00,VWS V14.01,2013-05-28 08:19:00,
2013-05-28 01:25:00,57.4,52.9,29.85,SSE,158,3.1,6.7,85,0.00,,,0.00,VWS V14.01,2013-05-28 08:25:00,
2013-05-28 01:30:00,57.2,52.7,29.85,SSW,202,5.8,7.2,85,0.00,,,0.00,VWS V14.01,2013-05-28 08:30:00,
2013-05-28 01:35:00,57.2,52.7,29.85,SSW,202,3.6,6.3,85,0.00,,,0.00,VWS V14.01,2013-05-28 08:35:00,
2013-05-28 01:40:00,57.4,52.9,29.85,SE,135,2.2,4.0,85,0.00,,,0.00,VWS V14.01,2013-05-28 08:40:00,
2013-05-28 01:45:00,57.4,52.9,29.85,SW,225,3.1,3.1,85,0.00,,,0.00,VWS V14.01,2013-05-28 08:45:00,
2013-05-28 01:50:00,57.4,52.9,29.85,SSW,202,3.1,3.1,85,0.00,,,0.00,VWS V14.01,2013-05-28 08:50:00,
2013-05-28 01:56:00,57.4,52.9,29.88,SSW,202,2.7,4.5,85,0.00,,,0.00,VWS V14.01,2013-05-28 08:56:00,
2013-05-28 02:01:00,57.4,52.9,29.88,SSW,202,0.0,2.2,85,0.00,,,0.00,VWS V14.01,2013-05-28 09:01:00,
2013-05-28 02:06:00,57.4,52.9,29.88,WSW,248,2.2,3.6,85,0.00,,,0.00,VWS V14.01,2013-05-28 09:06:00,
2013-05-28 02:11:00,57.4,52.9,29.88,WSW,248,0.0,4.0,85,0.00,,,0.00,VWS V14.01,2013-05-28 09:11:00,
2013-05-28 02:16:00,57.4,52.9,29.88,West,270,0.0,2.7,85,0.00,,,0.00,VWS V14.01,2013-05-28 09:16:00,
2013-05-28 02:22:00,57.4,52.9,29.88,SSW,202,0.0,0.0,85,0.00,,,0.00,VWS V14.01,2013-05-28 09:22:00,
2013-05-28 02:27:00,57.2,52.7,29.85,WSW,248,3.1,3.6,85,0.00,,,0.00,VWS V14.01,2013-05-28 09:27:00,
2013-05-28 02:32:00,57.2,52.7,29.85,West,270,2.2,2.2,85,0.00,,,0.00,VWS V14.01,2013-05-28 09:32:00,
2013-05-28 02:37:00,57.0,52.9,29.85,WSW,248,0.0,2.7,86,0.00,,,0.00,VWS V14.01,2013-05-28 09:37:00,
2013-05-28 02:43:00,57.0,52.9,29.85,South,180,2.2,2.7,86,0.00,,,0.00,VWS V14.01,2013-05-28 09:43:00,
2013-05-28 02:48:00,57.0,52.9,29.85,South,180,0.0,0.0,86,0.00,,,0.00,VWS V14.01,2013-05-28 09:48:00,
2013-05-28 02:53:00,56.8,52.7,29.85,SSE,158,3.1,3.1,86,0.00,,,0.00,VWS V14.01,2013-05-28 09:53:00,
2013-05-28 02:58:00,56.8,52.7,29.85,WSW,248,2.7,3.6,86,0.00,,,0.00,VWS V14.01,2013-05-28 09:58:00,
2013-05-28 03:03:00,56.8,52.7,29.85,SW,225,2.7,3.6,86,0.00,,,0.00,VWS V14.01,2013-05-28 10:03:00,
2013-05-28 03:08:00,56.8,52.7,29.85,SSW,202,0.0,0.0,86,0.00,,,0.00,VWS V14.01,2013-05-28 10:08:00,
2013-05-28 03:14:00,56.7,52.5,29.85,SE,135,3.1,3.1,86,0.00,,,0.00,VWS V14.01,2013-05-28 10:14:00,
2013-05-28 03:19:00,56.7,52.5,29.85,SW,225,0.0,2.7,86,0.00,,,0.00,VWS V14.01,2013-05-28 10:19:00,
2013-05-28 03:24:00,56.7,52.5,29.85,SW,225,0.0,0.0,86,0.00,,,0.00,VWS V14.01,2013-05-28 10:24:00,
2013-05-28 03:29:00,56.7,52.5,29.85,SSW,202,3.6,3.6,86,0.00,,,0.00,VWS V14.01,2013-05-28 10:29:00,
2013-05-28 03:34:00,56.7,52.5,29.85,WSW,248,0.0,0.0,86,0.00,,,0.00,VWS V14.01,2013-05-28 10:34:00,
2013-05-28 03:39:00,56.7,52.2,29.85,SSW,202,0.0,2.2,85,0.00,,,0.00,VWS V14.01,2013-05-28 10:39:00,
2013-05-28 03:44:00,56.5,52.0,29.85,SSW,202,0.0,0.0,85,0.00,,,0.00,VWS V14.01,2013-05-28 10:44:00,
2013-05-28 03:50:00,56.7,52.2,29.85,SSE,158,0.0,0.0,85,0.00,,,0.00,VWS V14.01,2013-05-28 10:50:00,
2013-05-28 03:55:00,56.7,52.2,29.85,West,270,0.0,0.0,85,0.00,,,0.00,VWS V14.01,2013-05-28 10:55:00,
2013-05-28 04:00:00,56.7,52.2,29.85,SSE,158,4.0,4.0,85,0.00,,,0.00,VWS V14.01,2013-05-28 11:00:00,
2013-05-28 04:05:00,56.7,52.2,29.85,SSW,202,0.0,0.0,85,0.00,,,0.00,VWS V14.01,2013-05-28 11:05:00,
2013-05-28 04:10:00,56.7,52.2,29.85,South,180,0.0,3.1,85,0.00,,,0.00,VWS V14.01,2013-05-28 11:10:00,
2013-05-28 04:16:00,56.7,52.2,29.85,SSW,202,3.1,3.1,85,0.00,,,0.00,VWS V14.01,2013-05-28 11:16:00,
2013-05-28 04:21:00,56.7,52.2,29.85,South,180,0.0,0.0,85,0.00,,,0.00,VWS V14.01,2013-05-28 11:21:00,
2013-05-28 04:26:00,56.7,52.2,29.85,East,90,0.0,3.6,85,0.00,,,0.00,VWS V14.01,2013-05-28 11:26:00,
2013-05-28 04:31:00,56.7,52.2,29.85,SSW,202,2.2,2.2,85,0.00,,,0.00,VWS V14.01,2013-05-28 11:31:00,
2013-05-28 04:36:00,56.5,51.7,29.85,ESE,112,0.0,2.2,84,0.00,,,0.00,VWS V14.01,2013-05-28 11:36:00,
2013-05-28 04:41:00,56.3,51.5,29.85,South,180,0.0,0.0,84,0.00,,,0.00,VWS V14.01,2013-05-28 11:41:00,
2013-05-28 04:46:00,56.5,51.7,29.85,SSW,202,0.0,0.0,84,0.00,,,0.00,VWS V14.01,2013-05-28 11:46:00,
2013-05-28 04:51:00,56.5,51.7,29.85,South,180,0.0,0.0,84,0.00,,,0.00,VWS V14.01,2013-05-28 11:51:00,
2013-05-28 04:56:00,56.5,52.0,29.85,SW,225,0.0,0.0,85,0.00,,,0.00,VWS V14.01,2013-05-28 11:56:00,
2013-05-28 05:02:00,56.7,52.2,29.85,SSW,202,5.8,5.8,85,0.00,,,0.00,VWS V14.01,2013-05-28 12:02:00,
2013-05-28 05:07:00,56.7,52.2,29.85,South,180,5.4,5.4,85,0.00,,,0.00,VWS V14.01,2013-05-28 12:07:00,
2013-05-28 05:12:00,56.7,51.9,29.85,SW,225,0.0,0.0,84,0.00,,,0.00,VWS V14.01,2013-05-28 12:12:00,
2013-05-28 05:17:00,56.7,51.9,29.85,South,180,0.0,3.6,84,0.00,,,0.00,VWS V14.01,2013-05-28 12:17:00,
2013-05-28 05:22:00,56.7,51.9,29.85,SSW,202,3.1,3.1,84,0.00,,,0.00,VWS V14.01,2013-05-28 12:22:00,
2013-05-28 05:28:00,56.7,51.9,29.82,South,180,2.2,2.2,84,0.00,,,0.00,VWS V14.01,2013-05-28 12:28:00,
2013-05-28 05:33:00,56.7,51.9,29.82,SSW,202,2.7,2.7,84,0.00,,,0.00,VWS V14.01,2013-05-28 12:33:00,
2013-05-28 05:38:00,56.7,51.9,29.82,SSE,158,0.0,0.0,84,0.00,,,0.00,VWS V14.01,2013-05-28 12:38:00,
2013-05-28 05:43:00,56.7,51.9,29.85,SSE,158,3.1,3.1,84,0.00,,,0.00,VWS V14.01,2013-05-28 12:43:00,
2013-05-28 05:48:00,56.7,51.9,29.85,SSW,202,0.0,4.0,84,0.00,,,0.00,VWS V14.01,2013-05-28 12:48:00,
2013-05-28 05:53:00,56.7,51.9,29.85,SW,225,0.0,0.0,84,0.00,,,0.00,VWS V14.01,2013-05-28 12:53:00,
2013-05-28 05:59:00,56.7,51.9,29.85,SSE,158,0.0,2.2,84,0.00,,,0.00,VWS V14.01,2013-05-28 12:59:00,
2013-05-28 06:04:00,56.8,52.1,29.85,ENE,68,0.0,2.2,84,0.00,,,0.00,VWS V14.01,2013-05-28 13:04:00,
2013-05-28 06:09:00,56.8,52.1,29.85,SSE,158,0.0,0.0,84,0.00,,,0.00,VWS V14.01,2013-05-28 13:09:00,
2013-05-28 06:14:00,56.7,51.9,29.85,SW,225,0.0,0.0,84,0.00,,,0.00,VWS V14.01,2013-05-28 13:14:00,
2013-05-28 06:19:00,56.7,51.9,29.85,SW,225,0.0,0.0,84,0.00,,,0.00,VWS V14.01,2013-05-28 13:19:00,
2013-05-28 06:24:00,56.5,51.7,29.85,South,180,0.0,0.0,84,0.00,,,0.00,VWS V14.01,2013-05-28 13:24:00,
2013-05-28 06:30:00,56.3,51.5,29.85,WSW,248,3.1,4.0,84,0.00,,,0.00,VWS V14.01,2013-05-28 13:30:00,
2013-05-28 06:35:00,56.1,51.4,29.85,South,180,4.0,4.9,84,0.00,,,0.00,VWS V14.01,2013-05-28 13:35:00,
2013-05-28 06:40:00,56.1,51.4,29.85,South,180,2.2,2.2,84,0.00,,,0.00,VWS V14.01,2013-05-28 13:40:00,
2013-05-28 06:45:00,56.1,51.4,29.85,SSW,202,3.1,3.1,84,0.00,,,0.00,VWS V14.01,2013-05-28 13:45:00,
2013-05-28 06:50:00,56.1,51.4,29.85,WSW,248,2.7,2.7,84,0.00,,,0.00,VWS V14.01,2013-05-28 13:50:00,
2013-05-28 06:55:00,55.9,51.2,29.85,SSW,202,4.0,4.0,84,0.00,,,0.00,VWS V14.01,2013-05-28 13:55:00,
2013-05-28 07:00:00,56.1,51.4,29.85,South,180,0.0,0.0,84,0.00,,,0.00,VWS V14.01,2013-05-28 14:00:00,
2013-05-28 07:05:00,56.1,51.4,29.85,WSW,248,2.7,3.6,84,0.00,,,0.00,VWS V14.01,2013-05-28 14:05:00,
2013-05-28 07:11:00,56.3,51.5,29.85,South,180,2.2,3.1,84,0.00,,,0.00,VWS V14.01,2013-05-28 14:11:00,
2013-05-28 07:16:00,56.5,51.7,29.85,WSW,248,0.0,3.6,84,0.00,,,0.00,VWS V14.01,2013-05-28 14:16:00,
2013-05-28 07:21:00,56.7,51.9,29.85,SSW,202,0.0,2.2,84,0.00,,,0.00,VWS V14.01,2013-05-28 14:21:00,
2013-05-28 07:26:00,56.7,51.9,29.85,NE,45,2.7,3.1,84,0.00,,,0.00,VWS V14.01,2013-05-28 14:26:00,
2013-05-28 07:31:00,56.8,52.1,29.85,SSW,202,2.2,2.2,84,0.00,,,0.00,VWS V14.01,2013-05-28 14:31:00,
2013-05-28 07:36:00,57.0,52.2,29.85,ENE,68,2.7,3.6,84,0.00,,,0.00,VWS V14.01,2013-05-28 14:36:00,
2013-05-28 07:41:00,57.0,51.9,29.88,ENE,68,3.1,3.1,83,0.00,,,0.00,VWS V14.01,2013-05-28 14:41:00,
2013-05-28 07:47:00,57.2,51.8,29.88,WNW,292,3.6,3.6,82,0.00,,,0.00,VWS V14.01,2013-05-28 14:47:00,
2013-05-28 07:52:00,57.2,51.8,29.88,North,0,3.6,3.6,82,0.00,,,0.00,VWS V14.01,2013-05-28 14:52:00,
2013-05-28 07:57:00,57.2,51.4,29.85,NNW,338,4.0,4.0,81,0.00,,,0.00,VWS V14.01,2013-05-28 14:57:00,
2013-05-28 08:02:00,57.4,51.9,29.85,NNE,22,0.0,0.0,82,0.00,,,0.00,VWS V14.01,2013-05-28 15:02:00,
2013-05-28 08:07:00,57.7,52.0,29.85,NNW,338,3.1,3.6,81,0.00,,,0.00,VWS V14.01,2013-05-28 15:07:00,
2013-05-28 08:12:00,57.6,51.8,29.85,NE,45,0.0,3.1,81,0.00,,,0.00,VWS V14.01,2013-05-28 15:12:00,
2013-05-28 08:18:00,57.9,52.1,29.85,ESE,112,0.0,0.0,81,0.00,,,0.00,VWS V14.01,2013-05-28 15:18:00,
2013-05-28 08:23:00,58.3,52.5,29.85,NNE,22,0.0,3.6,81,0.00,,,0.00,VWS V14.01,2013-05-28 15:23:00,
2013-05-28 08:28:00,58.5,52.3,29.85,South,180,0.0,0.0,80,0.00,,,0.00,VWS V14.01,2013-05-28 15:28:00,
2013-05-28 08:33:00,58.5,52.3,29.85,SW,225,2.2,2.7,80,0.00,,,0.00,VWS V14.01,2013-05-28 15:33:00,
2013-05-28 08:39:00,58.6,52.2,29.88,SSW,202,0.0,3.1,79,0.00,,,0.00,VWS V14.01,2013-05-28 15:39:00,
2013-05-28 08:44:00,58.8,52.3,29.88,South,180,0.0,0.0,79,0.00,,,0.00,VWS V14.01,2013-05-28 15:44:00,
2013-05-28 08:49:00,59.4,52.5,29.88,SSW,202,0.0,2.2,78,0.00,,,0.00,VWS V14.01,2013-05-28 15:49:00,
2013-05-28 08:54:00,60.1,52.9,29.88,SSE,158,2.2,3.6,77,0.00,,,0.00,VWS V14.01,2013-05-28 15:54:00,
2013-05-28 08:59:00,60.3,52.3,29.88,SSW,202,2.7,3.1,75,0.00,,,0.00,VWS V14.01,2013-05-28 15:59:00,
2013-05-28 09:05:00,61.0,52.3,29.88,ENE,68,0.0,2.2,73,0.00,,,0.00,VWS V14.01,2013-05-28 16:05:00,
2013-05-28 09:10:00,61.2,52.1,29.88,SSW,202,3.6,3.6,72,0.00,,,0.00,VWS V14.01,2013-05-28 16:10:00,
2013-05-28 09:15:00,61.2,51.3,29.88,SW,225,3.1,4.0,70,0.00,,,0.00,VWS V14.01,2013-05-28 16:15:00,
2013-05-28 09:20:00,61.2,50.9,29.88,ESE,112,0.0,4.0,69,0.00,,,0.00,VWS V14.01,2013-05-28 16:20:00,
2013-05-28 09:26:00,61.3,51.1,29.88,NE,45,0.0,2.2,69,0.00,,,0.00,VWS V14.01,2013-05-28 16:26:00,
2013-05-28 09:31:00,60.8,50.6,29.88,NE,45,2.7,3.6,69,0.00,,,0.00,VWS V14.01,2013-05-28 16:31:00,
2013-05-28 09:36:00,60.6,50.8,29.88,NE,45,0.0,2.2,70,0.00,,,0.00,VWS V14.01,2013-05-28 16:36:00,
2013-05-28 09:42:00,60.6,51.2,29.88,ENE,68,0.0,0.0,71,0.00,,,0.00,VWS V14.01,2013-05-28 16:42:00,
2013-05-28 09:47:00,60.6,51.2,29.88,North,0,3.1,3.6,71,0.00,,,0.00,VWS V14.01,2013-05-28 16:47:00,
2013-05-28 09:52:00,60.6,51.2,29.88,WSW,248,2.7,2.7,71,0.00,,,0.00,VWS V14.01,2013-05-28 16:52:00,
2013-05-28 09:57:00,60.6,51.2,29.88,West,270,2.7,3.6,71,0.00,,,0.00,VWS V14.01,2013-05-28 16:57:00,
2013-05-28 10:02:00,60.8,51.0,29.88,NNW,338,2.2,2.7,70,0.00,,,0.00,VWS V14.01,2013-05-28 17:02:00,
2013-05-28 10:07:00,61.0,51.1,29.88,SE,135,2.2,3.1,70,0.00,,,0.00,VWS V14.01,2013-05-28 17:07:00,
2013-05-28 10:12:00,61.0,51.1,29.88,WSW,248,3.6,3.6,70,0.00,,,0.00,VWS V14.01,2013-05-28 17:12:00,
2013-05-28 10:17:00,60.8,50.6,29.88,WNW,292,3.1,3.1,69,0.00,,,0.00,VWS V14.01,2013-05-28 17:17:00,
2013-05-28 10:23:00,61.3,51.1,29.88,South,180,3.1,4.0,69,0.00,,,0.00,VWS V14.01,2013-05-28 17:23:00,
2013-05-28 10:28:00,62.2,51.6,29.91,SW,225,2.7,4.9,68,0.00,,,0.00,VWS V14.01,2013-05-28 17:28:00,
2013-05-28 10:33:00,63.0,51.0,29.91,WSW,248,3.1,3.6,65,0.00,,,0.00,VWS V14.01,2013-05-28 17:33:00,
2013-05-28 10:38:00,63.3,50.1,29.91,SSE,158,2.7,7.6,62,0.00,,,0.00,VWS V14.01,2013-05-28 17:38:00,
2013-05-28 10:43:00,64.4,50.2,29.88,SSW,202,2.2,2.7,60,0.00,,,0.00,VWS V14.01,2013-05-28 17:43:00,
2013-05-28 10:48:00,64.9,49.4,29.88,SSW,202,6.7,6.7,57,0.00,,,0.00,VWS V14.01,2013-05-28 17:48:00,
2013-05-28 10:54:00,65.3,49.2,29.91,West,270,3.6,3.6,56,0.00,,,0.00,VWS V14.01,2013-05-28 17:54:00,
2013-05-28 10:59:00,65.8,49.2,29.91,WSW,248,5.4,5.4,55,0.00,,,0.00,VWS V14.01,2013-05-28 17:59:00,
2013-05-28 11:04:00,66.0,48.4,29.91,SSW,202,0.0,3.6,53,0.00,,,0.00,VWS V14.01,2013-05-28 18:04:00,
2013-05-28 11:09:00,65.7,48.1,29.91,SSW,202,3.1,4.0,53,0.00,,,0.00,VWS V14.01,2013-05-28 18:09:00,
2013-05-28 11:14:00,66.7,48.6,29.91,SW,225,4.9,4.9,52,0.00,,,0.00,VWS V14.01,2013-05-28 18:14:00,
2013-05-28 11:19:00,67.3,49.1,29.91,SW,225,3.6,3.6,52,0.00,,,0.00,VWS V14.01,2013-05-28 18:19:00,
2013-05-28 11:25:00,67.6,47.8,29.91,SW,225,4.9,4.9,49,0.00,,,0.00,VWS V14.01,2013-05-28 18:25:00,
2013-05-28 11:30:00,68.0,47.6,29.91,South,180,4.0,4.0,48,0.00,,,0.00,VWS V14.01,2013-05-28 18:30:00,
2013-05-28 11:35:00,68.9,47.9,29.91,SSW,202,2.7,4.9,47,0.00,,,0.00,VWS V14.01,2013-05-28 18:35:00,
2013-05-28 11:40:00,70.0,47.7,29.91,SSE,158,3.1,4.0,45,0.00,,,0.00,VWS V14.01,2013-05-28 18:40:00,
2013-05-28 11:45:00,69.4,46.6,29.91,ENE,68,4.9,6.3,44,0.00,,,0.00,VWS V14.01,2013-05-28 18:45:00,
2013-05-28 11:50:00,68.9,46.1,29.91,SSE,158,2.7,3.6,44,0.00,,,0.00,VWS V14.01,2013-05-28 18:50:00,
2013-05-28 11:56:00,68.7,46.0,29.91,NNE,22,2.2,4.9,44,0.00,,,0.00,VWS V14.01,2013-05-28 18:56:00,
2013-05-28 12:01:00,69.6,46.2,29.91,SW,225,5.8,5.8,43,0.00,,,0.00,VWS V14.01,2013-05-28 19:01:00,
2013-05-28 12:06:00,69.6,46.2,29.91,SSE,158,3.1,4.0,43,0.00,,,0.00,VWS V14.01,2013-05-28 19:06:00,
2013-05-28 12:11:00,69.1,46.3,29.91,SW,225,4.9,4.9,44,0.00,,,0.00,VWS V14.01,2013-05-28 19:11:00,
2013-05-28 12:16:00,68.7,46.5,29.91,ENE,68,3.1,4.5,45,0.00,,,0.00,VWS V14.01,2013-05-28 19:16:00,
2013-05-28 12:21:00,69.1,46.9,29.91,ESE,112,3.1,3.6,45,0.00,,,0.00,VWS V14.01,2013-05-28 19:21:00,
2013-05-28 12:27:00,68.9,45.5,29.91,WNW,292,4.9,7.6,43,0.00,,,0.00,VWS V14.01,2013-05-28 19:27:00,
2013-05-28 12:32:00,68.7,46.0,29.91,SSE,158,4.9,4.9,44,0.00,,,0.00,VWS V14.01,2013-05-28 19:32:00,
2013-05-28 12:37:00,68.4,45.6,29.91,ESE,112,4.0,8.3,44,0.00,,,0.00,VWS V14.01,2013-05-28 19:37:00,
2013-05-28 12:42:00,68.2,45.5,29.91,SSE,158,4.9,4.9,44,0.00,,,0.00,VWS V14.01,2013-05-28 19:42:00,
2013-05-28 12:47:00,68.7,46.0,29.91,South,180,3.1,3.1,44,0.00,,,0.00,VWS V14.01,2013-05-28 19:47:00,
2013-05-28 12:52:00,69.4,45.4,29.91,NNE,22,2.7,3.1,42,0.00,,,0.00,VWS V14.01,2013-05-28 19:52:00,
2013-05-28 12:57:00,70.0,44.6,29.91,SE,135,2.7,4.9,40,0.00,,,0.00,VWS V14.01,2013-05-28 19:57:00,
2013-05-28 13:02:00,70.0,44.6,29.91,WSW,248,2.7,4.5,40,0.00,,,0.00,VWS V14.01,2013-05-28 20:02:00,
2013-05-28 13:07:00,70.2,44.7,29.91,ESE,112,4.9,4.9,40,0.00,,,0.00,VWS V14.01,2013-05-28 20:07:00,
2013-05-28 13:12:00,69.6,44.9,29.88,SSW,202,5.8,6.3,41,0.00,,,0.00,VWS V14.01,2013-05-28 20:12:00,
2013-05-28 13:18:00,69.6,44.9,29.88,SSE,158,4.0,4.0,41,0.00,,,0.00,VWS V14.01,2013-05-28 20:18:00,
2013-05-28 13:23:00,69.8,45.1,29.88,ENE,68,4.0,4.0,41,0.00,,,0.00,VWS V14.01,2013-05-28 20:23:00,
2013-05-28 13:28:00,68.9,44.9,29.91,NE,45,3.1,3.1,42,0.00,,,0.00,VWS V14.01,2013-05-28 20:28:00,
2013-05-28 13:33:00,68.5,45.2,29.91,SSW,202,3.6,4.0,43,0.00,,,0.00,VWS V14.01,2013-05-28 20:33:00,
2013-05-28 13:38:00,68.5,45.8,29.91,SSE,158,3.1,3.1,44,0.00,,,0.00,VWS V14.01,2013-05-28 20:38:00,
2013-05-28 13:43:00,67.8,45.7,29.91,SE,135,0.0,6.3,45,0.00,,,0.00,VWS V14.01,2013-05-28 20:43:00,
2013-05-28 13:48:00,68.2,45.5,29.91,SSW,202,6.3,6.3,44,0.00,,,0.00,VWS V14.01,2013-05-28 20:48:00,
2013-05-28 13:53:00,66.9,44.9,29.91,South,180,5.8,5.8,45,0.00,,,0.00,VWS V14.01,2013-05-28 20:53:00,
2013-05-28 13:58:00,67.6,45.6,29.91,SE,135,2.7,4.0,45,0.00,,,0.00,VWS V14.01,2013-05-28 20:58:00,
2013-05-28 14:04:00,66.7,44.8,29.91,NNE,22,3.1,7.6,45,0.00,,,0.00,VWS V14.01,2013-05-28 21:04:00,
2013-05-28 14:09:00,67.3,45.8,29.91,NNW,338,4.0,4.0,46,0.00,,,0.00,VWS V14.01,2013-05-28 21:09:00,
2013-05-28 14:14:00,67.8,45.7,29.91,SW,225,4.0,6.3,45,0.00,,,0.00,VWS V14.01,2013-05-28 21:14:00,
2013-05-28 14:19:00,67.6,45.6,29.91,NNE,22,6.3,6.3,45,0.00,,,0.00,VWS V14.01,2013-05-28 21:19:00,
2013-05-28 14:25:00,67.6,45.6,29.88,SSW,202,4.0,4.9,45,0.00,,,0.00,VWS V14.01,2013-05-28 21:25:00,
2013-05-28 14:30:00,66.7,44.8,29.88,SSE,158,2.7,6.3,45,0.00,,,0.00,VWS V14.01,2013-05-28 21:30:00,
2013-05-28 14:35:00,67.3,45.2,29.88,ENE,68,3.1,5.4,45,0.00,,,0.00,VWS V14.01,2013-05-28 21:35:00,
2013-05-28 14:40:00,67.8,45.1,29.91,SW,225,5.4,5.4,44,0.00,,,0.00,VWS V14.01,2013-05-28 21:40:00,
2013-05-28 14:45:00,68.2,45.5,29.91,NNE,22,2.7,2.7,44,0.00,,,0.00,VWS V14.01,2013-05-28 21:45:00,
2013-05-28 14:51:00,68.0,44.7,29.91,WNW,292,2.7,3.1,43,0.00,,,0.00,VWS V14.01,2013-05-28 21:51:00,
2013-05-28 14:56:00,68.5,45.2,29.91,SSW,202,4.0,4.9,43,0.00,,,0.00,VWS V14.01,2013-05-28 21:56:00,
2013-05-28 15:01:00,68.2,44.2,29.91,ENE,68,3.1,9.6,42,0.00,,,0.00,VWS V14.01,2013-05-28 22:01:00,
2013-05-28 15:06:00,67.1,44.5,29.91,SSW,202,4.0,10.5,44,0.00,,,0.00,VWS V14.01,2013-05-28 22:06:00,
2013-05-28 15:11:00,66.7,44.8,29.91,West,270,6.3,6.3,45,0.00,,,0.00,VWS V14.01,2013-05-28 22:11:00,
2013-05-28 15:17:00,66.6,44.6,29.91,WSW,248,4.5,4.5,45,0.00,,,0.00,VWS V14.01,2013-05-28 22:17:00,
2013-05-28 15:22:00,67.3,45.2,29.91,NE,45,2.2,5.4,45,0.00,,,0.00,VWS V14.01,2013-05-28 22:22:00,
2013-05-28 15:27:00,68.2,44.9,29.91,ENE,68,2.2,2.7,43,0.00,,,0.00,VWS V14.01,2013-05-28 22:27:00,
2013-05-28 15:32:00,69.3,44.6,29.91,SSW,202,3.1,5.4,41,0.00,,,0.00,VWS V14.01,2013-05-28 22:32:00,
2013-05-28 15:37:00,69.3,43.9,29.91,SSW,202,3.1,4.0,40,0.00,,,0.00,VWS V14.01,2013-05-28 22:37:00,
2013-05-28 15:42:00,69.3,43.3,29.91,SW,225,2.2,6.3,39,0.00,,,0.00,VWS V14.01,2013-05-28 22:42:00,
2013-05-28 15:47:00,69.4,43.4,29.91,SSE,158,4.0,6.3,39,0.00,,,0.00,VWS V14.01,2013-05-28 22:47:00,
2013-05-28 15:53:00,69.3,43.9,29.91,South,180,3.6,3.6,40,0.00,,,0.00,VWS V14.01,2013-05-28 22:53:00,
2013-05-28 15:58:00,69.1,43.8,29.88,SW,225,3.1,3.6,40,0.00,,,0.00,VWS V14.01,2013-05-28 22:58:00,
2013-05-28 16:03:00,68.9,43.6,29.88,WNW,292,2.2,3.6,40,0.00,,,0.00,VWS V14.01,2013-05-28 23:03:00,
2013-05-28 16:08:00,68.9,43.6,29.88,WNW,292,2.2,2.2,40,0.00,,,0.00,VWS V14.01,2013-05-28 23:08:00,
2013-05-28 16:13:00,68.9,43.6,29.88,WNW,292,2.2,2.2,40,0.00,,,0.00,VWS V14.01,2013-05-28 23:13:00,
2013-05-28 16:18:00,68.9,43.6,29.88,WNW,292,2.2,2.2,40,0.00,,,0.00,VWS V14.01,2013-05-28 23:18:00,
2013-05-28 16:23:00,68.9,43.6,29.88,WNW,292,5.8,5.8,40,0.00,,,0.00,VWS V14.01,2013-05-28 23:23:00,
2013-05-28 16:28:00,67.8,43.3,29.88,WSW,248,4.0,4.0,41,0.00,,,0.00,VWS V14.01,2013-05-28 23:28:00,
2013-05-28 16:33:00,67.6,42.5,29.88,WSW,248,4.0,4.0,40,0.00,,,0.00,VWS V14.01,2013-05-28 23:33:00,
2013-05-28 16:39:00,67.6,42.5,29.88,WNW,292,3.6,3.6,40,0.00,,,0.00,VWS V14.01,2013-05-28 23:39:00,
2013-05-28 16:44:00,67.6,42.5,29.88,WNW,292,3.6,3.6,40,0.00,,,0.00,VWS V14.01,2013-05-28 23:44:00,
2013-05-28 16:49:00,68.0,42.8,29.88,WNW,292,4.9,4.9,40,0.00,,,0.00,VWS V14.01,2013-05-28 23:49:00,
2013-05-28 16:54:00,66.7,42.3,29.91,WNW,292,4.9,4.9,41,0.00,,,0.00,VWS V14.01,2013-05-28 23:54:00,
2013-05-28 16:59:00,67.1,43.3,29.91,WNW,292,2.7,3.1,42,0.00,,,0.00,VWS V14.01,2013-05-28 23:59:00,
2013-05-28 17:04:00,67.1,43.3,29.91,WSW,248,2.7,2.7,42,0.00,,,0.00,VWS V14.01,2013-05-29 00:04:00,
2013-05-28 17:10:00,67.1,43.3,29.88,West,270,4.0,4.0,42,0.00,,,0.00,VWS V14.01,2013-05-29 00:10:00,
2013-05-28 17:15:00,66.7,42.9,29.88,WSW,248,0.0,4.0,42,0.00,,,0.00,VWS V14.01,2013-05-29 00:15:00,
2013-05-28 17:20:00,66.7,42.9,29.88,WSW,248,4.0,4.0,42,0.00,,,0.00,VWS V14.01,2013-05-29 00:20:00,
2013-05-28 17:25:00,69.1,43.8,29.88,WSW,248,3.1,3.1,40,0.00,,,0.00,VWS V14.01,2013-05-29 00:25:00,
2013-05-28 17:30:00,68.9,43.6,29.88,NNE,22,2.7,3.6,40,0.00,,,0.00,VWS V14.01,2013-05-29 00:30:00,
2013-05-28 17:35:00,68.7,43.5,29.88,WNW,292,2.2,2.2,40,0.00,,,0.00,VWS V14.01,2013-05-29 00:35:00,
2013-05-28 17:41:00,68.0,42.8,29.85,WNW,292,0.0,4.0,40,0.00,,,0.00,VWS V14.01,2013-05-29 00:41:00,
2013-05-28 17:46:00,67.8,43.9,29.85,SSW,202,2.7,3.1,42,0.00,,,0.00,VWS V14.01,2013-05-29 00:46:00,
2013-05-28 17:52:00,67.8,43.9,29.85,SW,225,3.1,4.0,42,0.00,,,0.00,VWS V14.01,2013-05-29 00:52:00,
2013-05-28 17:57:00,67.5,43.6,29.85,WNW,292,4.0,4.0,42,0.00,,,0.00,VWS V14.01,2013-05-29 00:57:00,
2013-05-28 18:02:00,66.0,43.5,29.85,SSW,202,5.8,8.7,44,0.00,,,0.00,VWS V14.01,2013-05-29 01:02:00,
2013-05-28 18:07:00,64.2,43.6,29.85,West,270,5.4,5.4,47,0.00,,,0.00,VWS V14.01,2013-05-29 01:07:00,
2013-05-28 18:13:00,63.3,43.3,29.85,WSW,248,4.0,7.2,48,0.00,,,0.00,VWS V14.01,2013-05-29 01:13:00,
2013-05-28 18:18:00,62.6,43.7,29.85,South,180,5.4,5.4,50,0.00,,,0.00,VWS V14.01,2013-05-29 01:18:00,
2013-05-28 18:23:00,61.9,44.1,29.85,SW,225,6.3,6.3,52,0.00,,,0.00,VWS V14.01,2013-05-29 01:23:00,
2013-05-28 18:28:00,61.7,44.9,29.85,NNW,338,3.6,5.4,54,0.00,,,0.00,VWS V14.01,2013-05-29 01:28:00,
2013-05-28 18:33:00,61.3,44.6,29.85,SSW,202,4.9,5.4,54,0.00,,,0.00,VWS V14.01,2013-05-29 01:33:00,
2013-05-28 18:38:00,61.0,44.7,29.85,NNW,338,2.7,5.8,55,0.00,,,0.00,VWS V14.01,2013-05-29 01:38:00,
2013-05-28 18:43:00,60.8,45.0,29.85,WNW,292,2.7,6.3,56,0.00,,,0.00,VWS V14.01,2013-05-29 01:43:00,
2013-05-28 18:49:00,60.4,45.2,29.85,West,270,4.9,4.9,57,0.00,,,0.00,VWS V14.01,2013-05-29 01:49:00,
2013-05-28 18:54:00,60.3,45.4,29.85,North,0,2.2,3.1,58,0.00,,,0.00,VWS V14.01,2013-05-29 01:54:00,
2013-05-28 18:59:00,60.1,45.3,29.85,North,0,2.7,4.0,58,0.00,,,0.00,VWS V14.01,2013-05-29 01:59:00,
2013-05-28 19:04:00,59.9,45.5,29.85,WSW,248,3.6,4.9,59,0.00,,,0.00,VWS V14.01,2013-05-29 02:04:00,
2013-05-28 19:09:00,59.5,45.2,29.85,WNW,292,2.7,2.7,59,0.00,,,0.00,VWS V14.01,2013-05-29 02:09:00,
2013-05-28 19:14:00,59.4,45.5,29.85,WSW,248,5.8,5.8,60,0.00,,,0.00,VWS V14.01,2013-05-29 02:14:00,
2013-05-28 19:20:00,59.4,45.9,29.85,NNE,22,3.6,3.6,61,0.00,,,0.00,VWS V14.01,2013-05-29 02:20:00,
2013-05-28 19:25:00,59.2,45.8,29.85,SW,225,2.7,3.6,61,0.00,,,0.00,VWS V14.01,2013-05-29 02:25:00,
2013-05-28 19:30:00,59.2,46.2,29.85,South,180,3.6,3.6,62,0.00,,,0.00,VWS V14.01,2013-05-29 02:30:00,
2013-05-28 19:35:00,59.2,46.2,29.85,WSW,248,2.7,4.0,62,0.00,,,0.00,VWS V14.01,2013-05-29 02:35:00,
2013-05-28 19:40:00,59.4,45.9,29.85,ESE,112,4.9,4.9,61,0.00,,,0.00,VWS V14.01,2013-05-29 02:40:00,
2013-05-28 19:45:00,59.5,45.7,29.85,SSW,202,4.0,4.0,60,0.00,,,0.00,VWS V14.01,2013-05-29 02:45:00,
2013-05-28 19:51:00,60.1,45.3,29.85,East,90,0.0,3.6,58,0.00,,,0.00,VWS V14.01,2013-05-29 02:51:00,
2013-05-28 19:56:00,60.3,45.0,29.85,SSE,158,0.0,2.7,57,0.00,,,0.00,VWS V14.01,2013-05-29 02:56:00,
2013-05-28 20:01:00,60.3,44.5,29.85,South,180,3.6,3.6,56,0.00,,,0.00,VWS V14.01,2013-05-29 03:01:00,
2013-05-28 20:06:00,60.1,44.3,29.85,SE,135,5.4,5.4,56,0.00,,,0.00,VWS V14.01,2013-05-29 03:06:00,
2013-05-28 20:12:00,60.1,44.8,29.85,WSW,248,3.1,3.1,57,0.00,,,0.00,VWS V14.01,2013-05-29 03:12:00,
2013-05-28 20:17:00,59.7,44.5,29.85,SW,225,4.0,4.0,57,0.00,,,0.00,VWS V14.01,2013-05-29 03:17:00,
2013-05-28 20:22:00,59.4,44.6,29.85,SSW,202,2.7,3.6,58,0.00,,,0.00,VWS V14.01,2013-05-29 03:22:00,
2013-05-28 20:27:00,59.2,44.4,29.85,SSW,202,3.6,4.5,58,0.00,,,0.00,VWS V14.01,2013-05-29 03:27:00,
2013-05-28 20:32:00,58.8,44.5,29.85,SW,225,7.2,7.2,59,0.00,,,0.00,VWS V14.01,2013-05-29 03:32:00,
2013-05-28 20:37:00,58.5,45.1,29.85,WNW,292,3.1,7.2,61,0.00,,,0.00,VWS V14.01,2013-05-29 03:37:00,
2013-05-28 20:43:00,58.3,45.3,29.85,WSW,248,4.0,4.9,62,0.00,,,0.00,VWS V14.01,2013-05-29 03:43:00,
2013-05-28 20:48:00,57.9,45.8,29.85,South,180,3.1,5.8,64,0.00,,,0.00,VWS V14.01,2013-05-29 03:48:00,
2013-05-28 20:53:00,57.9,46.2,29.85,South,180,5.8,5.8,65,0.00,,,0.00,VWS V14.01,2013-05-29 03:53:00,
2013-05-28 20:58:00,58.1,46.4,29.85,SSE,158,4.0,4.0,65,0.00,,,0.00,VWS V14.01,2013-05-29 03:58:00,
2013-05-28 21:01:00,57.9,45.8,29.85,SSW,202,4.9,4.9,64,0.00,,,0.00,VWS V14.01,2013-05-29 04:01:00,
2013-05-28 21:02:00,57.9,45.8,29.85,WSW,248,2.2,4.9,64,0.00,,,0.00,VWS V14.01,2013-05-29 04:02:00,
2013-05-28 21:03:00,57.9,45.8,29.85,SSW,202,0.0,2.7,64,0.00,,,0.00,VWS V14.01,2013-05-29 04:03:00,
2013-05-28 21:06:00,58.1,46.0,29.85,ESE,112,2.2,2.7,64,0.00,,,0.00,VWS V14.01,2013-05-29 04:06:00,
2013-05-28 21:11:00,58.1,45.2,29.85,SE,135,2.7,4.9,62,0.00,,,0.00,VWS V14.01,2013-05-29 04:11:00,
2013-05-28 21:16:00,57.9,44.6,29.85,SSW,202,3.6,4.5,61,0.00,,,0.00,VWS V14.01,2013-05-29 04:16:00,
2013-05-28 21:21:00,58.1,44.7,29.85,SSW,202,0.0,0.0,61,0.00,,,0.00,VWS V14.01,2013-05-29 04:21:00,
2013-05-28 21:26:00,58.1,44.7,29.85,South,180,0.0,0.0,61,0.00,,,0.00,VWS V14.01,2013-05-29 04:26:00,
2013-05-28 21:31:00,58.1,44.7,29.85,South,180,3.1,3.1,61,0.00,,,0.00,VWS V14.01,2013-05-29 04:31:00,
2013-05-28 21:37:00,58.1,44.7,29.85,SSW,202,0.0,2.2,61,0.00,,,0.00,VWS V14.01,2013-05-29 04:37:00,
2013-05-28 21:42:00,58.1,45.2,29.85,South,180,0.0,0.0,62,0.00,,,0.00,VWS V14.01,2013-05-29 04:42:00,
2013-05-28 21:47:00,58.1,45.6,29.85,WNW,292,0.0,0.0,63,0.00,,,0.00,VWS V14.01,2013-05-29 04:47:00,
2013-05-28 21:52:00,58.1,46.0,29.85,WSW,248,2.2,2.2,64,0.00,,,0.00,VWS V14.01,2013-05-29 04:52:00,
2013-05-28 21:57:00,57.9,45.8,29.85,WSW,248,2.2,2.2,64,0.00,,,0.00,VWS V14.01,2013-05-29 04:57:00,
2013-05-28 22:02:00,57.9,46.2,29.85,SSE,158,5.4,5.4,65,0.00,,,0.00,VWS V14.01,2013-05-29 05:02:00,
2013-05-28 22:07:00,57.6,45.9,29.85,SSW,202,4.0,4.0,65,0.00,,,0.00,VWS V14.01,2013-05-29 05:07:00,
2013-05-28 22:12:00,57.7,46.1,29.85,SSE,158,3.1,3.1,65,0.00,,,0.00,VWS V14.01,2013-05-29 05:12:00,
2013-05-28 22:18:00,57.9,45.8,29.85,SSW,202,0.0,3.1,64,0.00,,,0.00,VWS V14.01,2013-05-29 05:18:00,
2013-05-28 22:23:00,57.9,45.8,29.85,South,180,4.0,7.2,64,0.00,,,0.00,VWS V14.01,2013-05-29 05:23:00,
2013-05-28 22:28:00,57.6,45.5,29.85,South,180,7.2,7.2,64,0.00,,,0.00,VWS V14.01,2013-05-29 05:28:00,
2013-05-28 22:33:00,57.4,46.1,29.85,SSW,202,4.0,4.0,66,0.00,,,0.00,VWS V14.01,2013-05-29 05:33:00,
2013-05-28 22:38:00,57.4,46.1,29.85,WSW,248,2.7,2.7,66,0.00,,,0.00,VWS V14.01,2013-05-29 05:38:00,
2013-05-28 22:44:00,57.4,46.5,29.85,SE,135,2.7,2.7,67,0.00,,,0.00,VWS V14.01,2013-05-29 05:44:00,
2013-05-28 22:49:00,57.2,46.4,29.85,WNW,292,2.7,3.1,67,0.00,,,0.00,VWS V14.01,2013-05-29 05:49:00,
2013-05-28 22:54:00,57.2,46.4,29.88,SSW,202,3.6,3.6,67,0.00,,,0.00,VWS V14.01,2013-05-29 05:54:00,
2013-05-28 22:59:00,57.0,46.6,29.88,SSW,202,3.6,5.4,68,0.00,,,0.00,VWS V14.01,2013-05-29 05:59:00,
2013-05-28 23:04:00,56.8,46.8,29.88,SSW,202,4.0,4.9,69,0.00,,,0.00,VWS V14.01,2013-05-29 06:04:00,
2013-05-28 23:10:00,56.7,46.6,29.88,SSE,158,2.7,4.0,69,0.00,,,0.00,VWS V14.01,2013-05-29 06:10:00,
2013-05-28 23:15:00,56.5,46.5,29.88,ENE,68,3.1,4.5,69,0.00,,,0.00,VWS V14.01,2013-05-29 06:15:00,
2013-05-28 23:20:00,56.3,47.0,29.88,SSE,158,3.6,4.0,71,0.00,,,0.00,VWS V14.01,2013-05-29 06:20:00,
2013-05-28 23:25:00,56.3,47.0,29.85,SSE,158,6.3,6.3,71,0.00,,,0.00,VWS V14.01,2013-05-29 06:25:00,
2013-05-28 23:30:00,56.3,46.7,29.85,NNW,338,2.7,4.5,70,0.00,,,0.00,VWS V14.01,2013-05-29 06:30:00,
2013-05-28 23:35:00,56.3,46.7,29.85,ESE,112,4.0,4.0,70,0.00,,,0.00,VWS V14.01,2013-05-29 06:35:00,
2013-05-28 23:41:00,56.5,46.8,29.85,ENE,68,4.0,4.0,70,0.00,,,0.00,VWS V14.01,2013-05-29 06:41:00,
2013-05-28 23:46:00,56.5,46.8,29.85,SSE,158,3.1,4.9,70,0.00,,,0.00,VWS V14.01,2013-05-29 06:46:00,
2013-05-28 23:51:00,56.5,46.8,29.85,SW,225,3.1,3.1,70,0.00,,,0.00,VWS V14.01,2013-05-29 06:51:00,
2013-05-28 23:56:00,56.3,46.7,29.85,SSE,158,3.6,3.6,70,0.00,,,0.00,VWS V14.01,2013-05-29 06:56:00,